Regional Weather Roundup
Issued by NWS Wakefield, VA

Home | Current Version | Previous Version | Text Only | Print | Product List | Glossary Off
Versions: 1 2 3 4 5 6 7 8 9 10 11 12 13 14 15 16 17 18 19 20 21 22 23 24 25 26 27 28 29 30 31 32 33 34 35 36 37 38 39 40 41 42 43 44 45 46 47 48 49 50

000
ASUS41 KAKQ 310210
RWRAKQ

REGIONAL WEATHER ROUNDUP
NATIONAL WEATHER SERVICE WAKEFIELD VA
1000 PM EDT SAT AUG 30 2014

Note: "fair" indicates few or no clouds below 12,000 feet with no
significant weather and/or obstructions to visibility. * = Denotes
station may not report precipitation (e.g., rain,snow,etc.),
thunder or fog.

VAZ042-051-052>054-056-310300-
NORTHERN VIRGINIA

CITY           SKY/WX    TMP DP  RH WIND       PRES   REMARKS
WASH NATIONAL  MOCLDY    79  70  74 SE6       30.14R
DULLES         PTCLDY    76  70  82 SE7       30.13S
FORT BELVOIR   MOCLDY    75  71  86 SE3       30.14R
QUANTICO       LGT RAIN  79  73  82 S12       30.14R
FREDERICKSBRG* PTCLDY    79  73  82 CALM      30.13R
STAFFORD*      PTCLDY    76  76 100 CALM      30.17S
WARRENTON      MOCLDY    76  76 100 SE3       30.13S
CULPEPER*      CLEAR    N/A N/A N/A CALM      30.13S HAZE
MANASSAS*      MOCLDY    75  73  94 SE5       30.13S
LEESBURG*      MOCLDY    79  73  83 S7        30.14S
WINCHESTER     MOCLDY    77  70  78 S6        30.12S
$$

VAZ048-049-060>072-079>083-310300-
CENTRAL AND SOUTH CENTRAL VIRGINIA...AND NORTH CENTRAL NORTH CAROLINA

CITY           SKY/WX    TMP DP  RH WIND       PRES   REMARKS
RICHMOND       PTCLDY    78  73  84 SE8       30.14S
CHESTERFIELD*  CLEAR    N/A N/A N/A S7        30.15S
PETERSBURG*    CLEAR     74  72  91 CALM      30.16R
HANOVER        CLEAR     78  73  84 VRB5      30.15S
TAPPAHANNOCK*  CLEAR     76  71  83 CALM      30.15S
CHARLOTTSVILLE PTCLDY    75  73  93 CALM      30.14R
ORANGE*        CLEAR     72  70  94 CALM      30.15S
LOUISA*        CLEAR     75  72  88 S5        30.13S
FARMVILLE*     CLEAR     77  73  88 CALM      30.12S
SOUTH HILL*    CLEAR     75  75 100 CALM      30.21S
ROANOKE RAPIDS PTCLDY    77  72  83 S5        30.16R
RALEIGH        PTCLDY    79  71  76 SE6       30.16R
$$

VAZ088>098-310300-
SOUTHEAST VIRGINIA

CITY           SKY/WX    TMP DP  RH WIND       PRES   REMARKS
NORFOLK        CLEAR     78  73  84 S7        30.16R
VIRGINIA BEACH CLEAR     77  74  90 SE7       30.16S
NORFOLK NAVAL  CLEAR     79  74  84 SE8       30.17S
WEST POINT*    CLEAR     78  73  86 SE6       30.16S
NEWPORT NEWS   CLEAR     82  73  74 S7        30.16R
LANGLEY AFB    CLEAR     79  76  92 S7        30.15S
FORT EUSTIS    CLEAR     79  79 100 SE7       30.14R
WILLIAMSBURG*  CLEAR     82  75  78 S9        30.16S
FRANKLIN*      CLEAR     75  72  88 CALM      30.16R
WAKEFIELD      CLEAR     78  73  84 CALM      30.16R
$$

VAZ020-022-025-037-045-310300-
WESTERN AND SOUTHWEST VIRGINIA

CITY           SKY/WX    TMP DP  RH WIND       PRES   REMARKS
STAUNTON*      CLOUDY    77  69  74 S6        30.18S
HOT SPRINGS VA CLOUDY   N/A N/A N/A S9        30.31F HAZE
LYNCHBURG      PTCLDY    76  73  91 S7        30.17R
DANVILLE       CLEAR     79  69  71 VRB3      30.15R
MARTINSVILLE   MOCLDY    76  72  88 CALM      30.18S
ROANOKE        PTCLDY    78  71  79 SE6       30.18S
BLACKSBURG     PTCLDY    70  68  94 CALM      30.24R
DUBLIN*        PTCLDY    74  67  78 CALM      30.23S
MARION*        PTCLDY   N/A N/A N/A CALM      30.26R
HILLSVILLE*    PTCLDY    70  65  84 S5        30.25R
RICHLANDS*     MOCLDY    78  65  65 S5        30.23R
WISE*          PTCLDY    75  63  64 S8        30.23R
ABINGDON*      MOCLDY    75  67  76 CALM      30.20R
$$

MDZ021>025-VAZ099-100-310300-
SOUTHERN MARYLAND AND THE DELMARVA PENINSULA

CITY           SKY/WX    TMP DP  RH WIND       PRES   REMARKS
PATUXENT RIVER CLEAR     76  71  85 S8        30.14S
BAY BRIDGE APT   N/A     77  68  73 SE9       30.15R
LEONARDTOWN    CLEAR     75  70  83 SE6       30.16S
DOVER          PTCLDY    72  67  84 SE8       30.15S
GEORGETOWN     CLEAR     71  65  81 SE9       30.18R
EASTON         NOT AVBL
CAMBRIDGE      CLEAR     72  66  83 SE6       30.15S
SALISBURY      CLEAR     72  65  78 E3        30.17S
OCEAN CITY     CLEAR     75  69  81 S5        30.17S
WALLOPS ISLAND CLEAR     77  72  84 S8        30.17S
ACCOMACK*      NOT AVBL
$$

NCZ012>017-030>032-310300-
EASTERN NORTH CAROLINA

CITY           SKY/WX    TMP DP  RH WIND       PRES   REMARKS
ELIZABETH CITY CLEAR     78  75  90 SE5       30.17R
AHOSKIE*       CLEAR     74  72  92 CALM      30.17R
EDENTON*       CLEAR     78  74  87 S6        30.17S
CURRITUCK*     CLEAR     77  74  89 CALM      30.18S
KILL DEVIL HLS CLEAR     77  75  92 CALM      30.17R
MANTEO         CLEAR     78  74  86 S6        30.18R
CAPE HATTERAS  NOT AVBL
GOLDSBORO      CLOUDY    78  78  98 SE7       30.15R
WASHINGTON     CLEAR     78  73  83 S5        30.18R
GREENVILLE     CLEAR     79  73  83 S6        30.18R
NEW BERN       CLEAR     76  72  87 CALM      30.19R
WILMINGTON     CLEAR     77  71  82 CALM      30.17R
$$

VAZ048-310300-
ELSEWHERE

CITY           SKY/WX    TMP DP  RH WIND       PRES   REMARKS
HARRISBURG PA  CLOUDY    74  65  73 SE7       30.13S
BALTIMORE      CLOUDY    76  70  82 S3        30.14R
ANNAPOLIS      CLOUDY    78  70  76 S9G20     30.14R
ANDREWS AFB    MOCLDY    73  71  91 SE7       30.15R
WILMINGTON DE  MOCLDY    73  65  75 SE9       30.17R
PHILADELPHIA   CLOUDY    75  62  64 S6        30.17R
WILDWOOD NJ*   CLEAR     72  63  73 SE9       30.18F
ATLANTIC CITY  MOCLDY    73  67  81 S8        30.18S
HENDERSON NC   CLEAR     77  69  76 S5        30.16S
GREENSBORO     PTCLDY    80  70  71 SE10      30.16R
ROCKY MOUNT    MOCLDY    75  72  90 CALM      30.16R
FAYETTEVILLE   CLEAR     79  73  82 S8        30.15R
CHARLOTTE      MOCLDY    79  63  57 S8        30.16R
$$

VAZ100-310300-
MARINE

STATION/POSITION TIME  TEMP    WIND        PRES    WAVE   SWELL
                       AIR SEA DIR/SP/G            HT/PER HT/PER
                 (UTC) (F)     (DEG/KT/KT) (MB)    (FT/S) (FT/S)
44066 TX TWR #4  0200   73 72  160/  8/ 10 1022.4F   2/ 8   2/ 8
CAPE MAY NJ      0200   73 79  140/  6/  8 1021.3R
LEWES DE         0200   73 76  160/  5/  8 1021.4R
15NM E FENWICK I 0200   74 74              1021.6F   2/ 8
OCEAN-CITY-INLET 0200   75 77  160/  8/ 10 1021.3S
WACHAPREAGUE VA  0200   77 81  170/  9/ 12 1021.5S
THOMAS POINT MD  0200   77 77  170/ 16/ 18 1021.6R
GOOSES REEF MD   0200   78     180/ 16/ 19 1020.9S
COVE POINT MD    0200   77     180/ 19/ 20 1020.6R
SOLOMONS ISLAND  0200      79                N/A
BISHOPS HEAD MD  0200   77 77  160/ 15/ 17 1020.5S
PINEY POINT MD   0200          180/ 13/ 15   N/A
POTOMAC MD       0200   78     170/ 14/ 17 1020.2S
CAMBRIDGE MD     0200   75 78  140/  5/  8 1020.7S
LEWISETTA VA     0200   77 79  170/  8/ 11 1020.3S
RAPPAHANNOCK LGT 0200          140/ 13/ 14 1021.8R
STINGRAY PT      0200   78     170/ 14/ 16   N/A
YORK RVR RNG VA  0200   78     160/ 14/ 16 1020.5S
YORKTOWN VA      0200   79 80  170/  6/  7 1020.7S
JAMESTOWN VA     0200   77     180/ 10/ 12   N/A
DOMINION TERM VA 0200   80     150/  8/  9 1021.2R
KIPTOPEKE VA     0200      82  160/ 11/ 13   N/A
CHES BAY BRIDGE  0200   78 79  140/  9/ 11 1020.9S
CAPE HENRY VA    0200   77     150/  9/ 12 1020.1S
CHESAPEAKE LGHT  0100   76     150/ 13/ 14 1022.1R
WILLOUBY STN VA  0200   79     110/  6/  7 1019.9S
S CRANEY ISL VA  0200          120/  7/  9 1020.9S
CAPE HENRY BUOY  0200      77                N/A     3/ 7
1ST LANDING BUOY 0200   78     150/ 12/ 14 1020.9R
CAPE CHARLES BUO 0200      78                N/A     3/ 4   2/ 8
OFFSHORE WE BUOY 0200      76                N/A     3/ 7   2/ 7
64NM E OF VA BCH 0200   78 78  140/  8/  8 1021.7R   2/ 8   2/ 8
DUCK PIER NC     0200   78 78  150/ 11/ 12 1021.0S
44056 DUCK FRF   0200                        N/A     2/ 9
OREGON INLET NC  0200   78 79  130/  6/  8 1021.7F
HATTERAS NC      0200   81 83  170/  9/ 11 1022.3S
DIAMOND SHLS NC  0200   80     140/ 12/ 14 1021.8R   3/ 8   3/ 8
CAPE LOOKOUT NC  0100   81     150/  9/  9 1021.2R
$$



USA.gov is the U.S. government's official web portal to all federal, state and local government web resources and services.